ニート-リニア彗星

P/2023 RL75 ( NEAT-LINEAR )

English version
Home page
Updated on December 1, 2023

---------------------------------------------------------------------

・ プロフィール

検出日 2023年9月9日
検出光度 21.7等
検出者 E. Schwab (Calar Alto)

・ 写真集

・ 軌道要素

                    Epoch = 2024 July 29.0 TT
     T = 2024 July 15.54787 TT        Peri. = 218.95141
     e = 0.5671066                    Node  = 205.99605 2000.0
     q = 3.3895578 AU                 Incl. =  10.83576
       a =  7.8300052 AU   n = 0.04498430   P =  21.91 years

・ 星図

・ 光度変化

        m1 = -7 + 5 logΔ + 38.5 log r(t - 117)

---------------------------------------------------------------------

軌道要素は、CBET 5306に掲載されたものです。
星図はステラナビゲータ Ver.11 (アストロアーツ) で作成したものです。
光度グラフはComet for Windowsで作成したものです。

---------------------------------------------------------------------

Copyright(C) Seiichi Yoshida (comet@aerith.net). All rights reserved.